Retour au catalogue

SL-8 DEB

ActifVLEO
NORAD 1392·DEBRIS·🇷🇺 Russia

Lancé Mar 15, 1965 depuis Baikonur Cosmodrome

Loading…

Prochains Passages (prochaines 24 heures)

TLE

FraisSource: Space-Track

Époque: Sep 14, 2026, 06:31 UTC

1 01392U 65020AH  26257.27197054  .00029497  00000-0  96876-3 0  9995
2 01392  55.8353 199.5349 0107472 253.5230 105.3971 15.25942128109709

Suivez SL-8 DEB en temps réel avec AllMySat

Download on the App Store